Flag for Malaysia Weather past 2 weeks in Johor Bahru, Malaysia

Now
73 °F

Passing clouds.


Feels Like: 68 °F
Forecast: 78 / 91 °F
Wind: 3 mph from West

Location: Johore Bharu / Senai

Current Time: Oct 22, 2014 at 3:32:54 AM

Latest Report: Oct 22, 2014 at 3:00 AM


Visibility: 5 mi

Pressure: 29.86 "Hg

Humidity: 100%

Dew point: 73 °F

Location of Johor BahruLocation

Historic Weather in Johor Bahru — Graph

°F

Johor Bahru temperature yesterday

Maximum temperature yesterday: 84 °F (at 10:00 AM)
Minimum temperature yesterday: 75 °F (at 7:00 AM)
Average temperature yesterday: 78 °F

Past Weeks' High & Low Weather Summary

 TemperatureHumidityPressure
High93 °F (Oct 10, 2:00 PM)100% (Oct 9, 6:00 AM)29.92 "Hg (Oct 9, 6:00 AM)
Low73 °F (Oct 22, 2:00 AM)53% (Oct 10, 3:00 PM)29.71 "Hg (Oct 10, 5:00 PM)
Average81 °F86%29.82 "Hg
* Reported Oct 7 2:00 AM — Oct 22 2:00 AM, Johor Bahru, Weather by CustomWeather, © 2014

Note: Actual official high and low records may vary slightly from our data, if they occured in-between our weather recording intervals... More about our weather records

Advertising

Johor Bahru weather history for previous 24 hours

 ConditionsComfort  
Time TempWeatherWind HumidityBarometerVisibility
2:00 AM
Oct 22
73 °FPassing clouds.No wind100%29.89 "Hg5 mi
1:00 AM75 °FPassing clouds.1 mph94%29.89 "HgN/A
12:00 AM75 °FPassing clouds.1 mph94%29.92 "HgN/A
11:00 PM
Oct 21
75 °FPassing clouds.1 mph94%29.92 "HgN/A
10:00 PM75 °FPassing clouds.1 mph94%29.92 "HgN/A
9:00 PM77 °FPassing clouds.1 mph89%29.89 "HgN/A
8:00 PM77 °FPassing clouds.1 mph94%29.86 "HgN/A
7:00 PM77 °FPassing clouds.1 mph94%29.86 "HgN/A
6:00 PM77 °FPartly sunny.2 mph94%29.86 "HgN/A
5:00 PM79 °FLight rain. Broken clouds.3 mph89%29.86 "HgN/A
4:00 PM79 °FThunderstorms. Broken clouds.6 mph89%29.83 "HgN/A
3:00 PM79 °FThunderstorms. Broken clouds.7 mph89%29.83 "Hg5 mi
2:00 PM84 °FThunderstorms. Broken clouds.3 mph79%29.86 "HgN/A
1:00 PM81 °FThunderstorms. Broken clouds.7 mph79%29.89 "HgN/A
12:00 PM82 °FThunderstorms. Broken clouds.6 mph89%29.92 "HgN/A
11:00 AM84 °FBroken clouds.1 mph84%29.92 "HgN/A
10:00 AM84 °FBroken clouds.1 mph84%29.92 "HgN/A
9:00 AM81 °FBroken clouds.2 mph89%29.92 "HgN/A
8:00 AM77 °FBroken clouds.2 mph94%29.89 "Hg4 mi
7:00 AM75 °FPartly sunny.2 mph100%29.86 "Hg4 mi
6:00 AM77 °FPassing clouds.1 mph94%29.86 "Hg4 mi
5:00 AM77 °FPassing clouds.1 mph94%29.83 "Hg6 mi
4:00 AM77 °FPassing clouds.2 mph94%29.83 "HgN/A
3:00 AM77 °FPartly cloudy.1 mph94%29.86 "HgN/A
Weather by CustomWeather, © 2014

See weather overviewHow to use our weather pages